Regional Weather Roundup
Issued by NWS Green Bay, WI

Home | Current Version | Previous Version | Text Only | Print | Product List | Glossary On
Versions: 1 2 3 4 5 6 7 8 9 10 11 12 13 14 15 16 17 18 19 20 21 22 23 24 25 26 27 28 29 30 31 32 33 34 35 36 37 38 39 40 41 42 43 44 45 46 47 48 49 50
000
ASUS43 KGRB 302359
RWRGRB

NORTH-CENTRAL AND NORTHEAST WISCONSIN REGIONAL WEATHER ROUNDUP
NATIONAL WEATHER SERVICE GREEN BAY WI
700 PM CDT TUE SEP 30 2014

WIZ005-009-010>012-018-019-010100-
NORTH CENTRAL WISCONSIN

CITY           SKY/WX    TMP DP  RH WIND       PRES   REMARKS
IRONWOOD       NOT AVBL
MANITOWISH WTR NOT AVBL
ARBOR VITAE    NOT AVBL
EAGLE RIVER    NOT AVBL
LAND O LAKES   NOT AVBL
RHINELANDER    CLEAR     50  42  74 SE5       30.01S
PHILLIPS       MOCLDY    51  43  73 E3        29.98S
ANTIGO         NOT AVBL
TOMAHAWK       NOT AVBL
MERRILL        NOT AVBL
$$

WIZ013-073-010100-
NORTHEAST WISCONSIN

CITY           SKY/WX    TMP DP  RH WIND       PRES   REMARKS
IRON MOUNTAIN  CLEAR     50  43  77 E8        30.03R
MARINETTE      NOT AVBL
$$

WIZ017-030-035>037-045-010100-
CENTRAL WISCONSIN

CITY           SKY/WX    TMP DP  RH WIND       PRES   REMARKS
MEDFORD        NOT AVBL
WAUSAU         MOCLDY    48  42  80 SE9       30.01S
MOSINEE        CLEAR     46  43  87 SE6       30.03S
MARSHFIELD     MOCLDY    48  42  80 SE8       30.01R
WISC RAPIDS    CLOUDY    49  42  77 SE7       30.04R
STEVENS POINT  NOT AVBL
WAUPACA        NOT AVBL
SHAWANO        CLOUDY    49  43  80 E7        30.05F
CLINTONVILLE   NOT AVBL
$$

WIZ038-039-048-051-010100-
FOX VALLEY

CITY           SKY/WX    TMP DP  RH WIND       PRES   REMARKS
NWS GREEN BAY  CLOUDY    49  44  83 E7        30.06S
APPLETON       CLOUDY    46  43  87 VRB6      30.05S
OSHKOSH        CLOUDY    49  44  83 E6        30.04S
FOND DU LAC    CLOUDY    49  43  80 E6        30.05S
$$

WIZ022-050-052-010100-
EAST CENTRAL WISCONSIN

CITY           SKY/WX    TMP DP  RH WIND       PRES   REMARKS
STURGEON BAY   NOT AVBL
MANITOWOC      NOT AVBL
SHEBOYGAN      CLOUDY    48  45  89 NE9       30.04F
$$

LMZ563-521-522-541>543-010100-
LAKESHORE

STATION/POSITION TIME  TEMP    WIND        PRES    VSBY  WAVE
                       AIR SEA DIR/SP/G                  HT/PER
                 (UTC) (F)     (DEG/KT/KT) (MB)    (MI)  (FT/S)
SHEBOYGAN LKSHOR 2300   49 55   10/  8/  9 1018.5R
KEWAUNEE LKSHORE 2300   49      40/  8/ 10 1016.8R
NORTHPORT PIER   2300   51      60/  2/  3 1017.6F
N MID LAKE BUOY  2300   53 58   40/  6/  8 1018.1R         1/ 3
S GREEN BAY BUOY 2300   51     VRB  6/ 10  1018.6F
CHAMBERS ISLAND  2300   51      60/  7/ 10 1017.9S
MENOMINEE LKSHOR 2300   51      40/  7/  9 1018.3S
$$



USA.gov is the U.S. government's official web portal to all federal, state and local government web resources and services.